QPF
0.22 0.33 0.24 0.17 0.08 0.06 0.04 0.02 0.01 0.00 0.00 0.00 0.00 0.01 0.03 0.11 0.22 0.24 0.16 0.08 0.02 0.00
0.28 0.44 0.46 0.21 0.09 0.04 0.05 0.03 0.04 0.03 0.00 0.00 0.00 0.01 0.00 0.01 0.06 0.19 0.21 0.09 0.03 0.01
0.17 0.32 0.37 0.24 0.12 0.04 0.04 0.05 0.03 0.02 0.00 0.00 0.00 0.00 0.01 0.01 0.03 0.05 0.08 0.04 0.02 0.01
0.04 0.14 0.34 0.44 0.15 0.13 0.08 0.06 0.07 0.05 0.02 0.01 0.01 0.01 0.01 0.00 0.00 0.01 0.01 0.01 0.01 0.00
0.00 0.02 0.14 0.40 0.31 0.20 0.14 0.09 0.06 0.13 0.09 0.02 0.01 0.01 0.01 0.00 0.00 0.00 0.00 0.00 0.00 0.00
0.00 0.01 0.03 0.07 0.16 0.21 0.23 0.17 0.10 0.05 0.10 0.04 0.03 0.01 0.01 0.01 0.00 0.00 0.00 0.00 0.00 0.00
0.00 0.00 0.01 0.12 0.15 0.12 0.16 0.16 0.18 0.08 0.07 0.06 0.04 0.04 0.03 0.03 0.02 0.01 0.00 0.01 0.00 0.00
0.00 0.00 0.00 0.03 0.14 0.15 0.13 0.16 0.11 0.16 0.14 0.19 0.16 0.04 0.03 0.02 0.02 0.01 0.01 0.01 0.00 0.00
0.00 0.00 0.00 0.00 0.04 0.10 0.11 0.11 0.14 0.13 0.11 0.12 0.21 0.20 0.02 0.01 0.02 0.02 0.00 0.00 0.00 0.02
0.00 0.00 0.00 0.00 0.00 0.02 0.03 0.06 0.11 0.14 0.11 0.08 0.09 0.12 0.08 0.01 0.00 0.00 0.00 0.00 0.00 0.03
0.00 0.00 0.00 0.00 0.00 0.00 0.00 0.03 0.08 0.08 0.16 0.16 0.11 0.13 0.19 0.21 0.07 0.00 0.00 0.00 0.00 0.00
0.00 0.01 0.00 0.00 0.00 0.00 0.00 0.00 0.01 0.05 0.16 0.31 0.35 0.30 0.22 0.26 0.28 0.09 0.00 0.00 0.00 0.00
0.01 0.04 0.04 0.02 0.00 0.00 0.00 0.00 0.01 0.03 0.05 0.14 0.41 0.61 0.51 0.41 0.37 0.30 0.07 0.00 0.00 0.00
0.01 0.02 0.04 0.05 0.03 0.02 0.01 0.02 0.01 0.02 0.04 0.12 0.19 0.27 0.59 0.77 0.72 0.49 0.19 0.02 0.00 0.00
MSLP
1009.24 1007.92 1007.19 1006.85 1007.40 1007.78 1008.18 1008.61 1009.35 1010.04 1011.01 1011.92 1012.58 1013.46 1014.39 1014.89 1015.05 1015.54 1016.02 1016.36 1016.91 1017.22
1009.90 1008.91 1007.69 1006.62 1007.20 1007.12 1007.58 1008.14 1008.68 1009.53 1010.16 1010.90 1012.03 1012.61 1013.31 1013.99 1014.34 1014.75 1015.25 1015.77 1016.61 1016.81
1010.50 1009.29 1008.55 1007.22 1006.37 1006.32 1006.80 1007.48 1008.11 1008.65 1009.30 1010.06 1010.86 1011.67 1012.39 1012.97 1013.75 1014.02 1014.59 1015.26 1015.87 1016.18
1010.75 1009.98 1009.32 1007.64 1005.97 1005.63 1006.16 1006.76 1007.30 1007.87 1008.41 1009.00 1009.68 1010.36 1011.20 1011.92 1012.62 1013.05 1013.61 1014.40 1015.06 1015.46
1011.46 1010.51 1009.23 1007.80 1006.13 1005.25 1005.62 1006.15 1006.60 1007.09 1007.12 1008.08 1008.64 1009.10 1009.89 1010.88 1011.58 1011.96 1012.49 1013.62 1014.23 1014.56
1011.91 1010.91 1009.61 1008.56 1007.35 1006.55 1005.14 1005.34 1005.75 1006.39 1006.70 1006.94 1007.74 1008.26 1008.67 1009.48 1010.24 1010.77 1011.31 1012.21 1012.95 1013.25
1012.07 1011.13 1010.36 1009.09 1007.99 1007.20 1005.94 1004.76 1004.96 1005.33 1005.88 1006.25 1006.90 1007.45 1007.99 1008.39 1009.23 1009.88 1010.36 1011.09 1011.78 1012.20
1012.62 1011.43 1010.31 1009.34 1008.69 1007.61 1006.56 1005.14 1004.11 1004.65 1005.01 1005.47 1005.68 1006.42 1007.00 1007.46 1007.89 1008.57 1009.16 1009.75 1010.32 1010.89
1012.80 1011.86 1010.73 1009.50 1008.57 1007.74 1006.83 1005.93 1004.34 1003.81 1004.32 1004.41 1004.63 1004.93 1005.70 1006.14 1006.73 1007.16 1007.73 1008.44 1009.14 1009.62
1013.60 1012.58 1011.18 1010.05 1009.03 1008.13 1007.21 1006.17 1004.82 1003.23 1002.74 1003.77 1003.77 1004.11 1004.16 1005.29 1005.55 1005.62 1006.01 1006.77 1007.54 1008.37
1014.47 1013.35 1011.96 1011.00 1009.99 1008.85 1007.81 1006.79 1005.44 1003.86 1002.99 1002.52 1002.87 1003.28 1003.77 1004.04 1004.53 1005.38 1005.10 1005.44 1006.09 1006.91
1014.28 1012.96 1011.93 1011.02 1010.38 1009.50 1008.32 1006.99 1005.52 1004.04 1002.65 1001.84 1002.03 1002.38 1003.09 1003.73 1004.28 1004.72 1004.67 1004.69 1004.96 1005.72
1014.55 1013.39 1012.75 1011.76 1010.90 1009.96 1008.70 1007.44 1006.10 1004.20 1002.59 1002.15 1001.91 1001.41 1002.31 1003.20 1002.86 1003.30 1003.49 1004.20 1004.56 1004.98
1014.30 1013.83 1013.16 1012.27 1011.28 1010.33 1009.16 1008.10 1007.13 1005.54 1003.90 1003.12 1002.62 1003.03 1002.84 1002.54 1002.90 1002.50 1003.28 1003.05 1003.69 1004.08
Thickness
5607 5620 5638 5647 5650 5650 5650 5652 5651 5649 5646 5641 5639 5637 5632 5635 5639 5640 5641 5643 5644 5646
5588 5602 5610 5632 5636 5646 5648 5652 5648 5645 5645 5643 5637 5636 5635 5635 5637 5638 5640 5639 5637 5642
5571 5587 5601 5618 5633 5642 5644 5644 5646 5645 5646 5644 5639 5637 5635 5635 5633 5635 5636 5635 5635 5638
5557 5572 5581 5597 5622 5635 5640 5641 5643 5644 5644 5644 5642 5642 5639 5635 5634 5636 5635 5634 5633 5633
5540 5554 5568 5580 5604 5626 5631 5635 5637 5640 5640 5644 5642 5643 5641 5637 5634 5636 5637 5631 5628 5629
5523 5538 5554 5565 5581 5600 5620 5629 5632 5633 5636 5637 5640 5641 5642 5640 5638 5637 5636 5634 5632 5632
5510 5526 5538 5555 5571 5583 5597 5619 5625 5631 5632 5636 5637 5638 5639 5639 5636 5634 5635 5633 5632 5632
5494 5511 5528 5543 5557 5572 5586 5603 5622 5623 5628 5631 5631 5634 5637 5638 5638 5637 5636 5634 5635 5636
5476 5494 5511 5530 5544 5558 5572 5587 5607 5620 5623 5628 5634 5635 5635 5641 5639 5640 5640 5637 5636 5637
5457 5474 5494 5510 5527 5542 5555 5572 5591 5615 5622 5622 5628 5627 5637 5634 5638 5642 5644 5643 5640 5638
5441 5456 5474 5489 5505 5522 5538 5553 5574 5594 5611 5624 5625 5625 5629 5626 5626 5629 5637 5640 5640 5639
5431 5448 5462 5476 5489 5503 5520 5539 5560 5581 5601 5605 5619 5620 5621 5621 5617 5618 5628 5632 5636 5636
5417 5432 5444 5459 5471 5487 5504 5523 5543 5566 5588 5599 5608 5615 5612 5610 5619 5616 5621 5625 5627 5625
5406 5415 5426 5441 5455 5470 5485 5503 5520 5542 5560 5573 5584 5586 5592 5601 5604 5615 5611 5619 5620 5622